Saint Johns, AZ

9:53 AM MST on February 06, 2016 (GMT -0700)
Saint Johns Industrial

Weather History for KSJN - October, 2012

Change the Weather History Date:

Monday, October 1, 2012

  Actual Average (KSOW) Record (KSOW)
Temperature  
Mean Temperature 59 °F -  
Max Temperature 75 °F 71 °F 86 °F (1979)
Min Temperature 43 °F 48 °F 35 °F (1968)
Degree Days  
Heating Degree Days 6    
Growing Degree Days 9 (Base 50)    
Moisture  
Dew Point 25 °F    
Average Humidity 27    
Maximum Humidity 51    
Minimum Humidity 8    
Precipitation  
Precipitation 0.00 in - - ()
Sea Level Pressure  
Sea Level Pressure 30.08 in    
Wind  
Wind Speed 5 mph (SW)    
Max Wind Speed 18 mph    
Max Gust Speed -    
Visibility 10 miles    
Events      
Averages and records for this station are not official NWS values.
T = Trace of Precipitation, MM = Missing Value Source: NWS Daily Summary

Daily Weather History Graph

Daily Weather History Graph

Search for Another Location

Airport or City:

Trip Planner

Search our weather history database for the weather conditions in past years. The results will help you decide how hot, cold, wet, or windy it might be!

Date:

Astronomy

Oct. 01, 2012 Rise Set
Actual Time 6:12 AM MST 6:00 PM MST
Civil Twilight 5:47 AM MST 6:25 PM MST
Nautical Twilight 5:18 AM MST 6:55 PM MST
Astronomical Twilight 4:48 AM MST 7:24 PM MST
Moon 6:46 PM MST (10/1) 7:39 AM MST (10/1)
Length of Visible Light 12h 38m
Length of Day
11h 48m
Full, 97% of the Moon is Illuminated
Oct 1
Full
Oct 8
Last Quarter
Oct 15
New
Oct 21
First Quarter
Oct 29
Full

Hourly Weather History & Observations

Time (MST) Temp. Windchill Dew Point Humidity Pressure Visibility Wind Dir Wind Speed Gust Speed Precip Events Conditions
12:54 AM 50.0 °F - 26.6 °F 40% 30.21 in 10.0 mi South 3.5 mph - N/A   Clear
1:54 AM 50.0 °F - 25.0 °F 38% 29.98 in 10.0 mi South 5.8 mph - N/A   Clear
2:54 AM 50.0 °F - 24.8 °F 37% 30.21 in 10.0 mi SSE 5.8 mph - N/A   Clear
3:54 AM 48.0 °F - 26.1 °F 42% 30.00 in 10.0 mi SE 4.6 mph - N/A   Clear
4:54 AM 44.6 °F - 24.8 °F 46% 30.24 in 10.0 mi Calm Calm - N/A   Clear
5:54 AM 44.1 °F 42.5 °F 27.0 °F 51% 30.07 in 10.0 mi South 3.5 mph - N/A   Clear
6:54 AM 46.4 °F - 26.6 °F 46% 30.27 in 10.0 mi Calm Calm - N/A   Clear
7:54 AM 53.1 °F - 28.0 °F 38% 30.11 in 10.0 mi Calm Calm - N/A   Clear
8:54 AM 59.0 °F - 28.4 °F 31% 30.30 in 10.0 mi WNW 4.6 mph - N/A   Clear
9:54 AM 64.9 °F - 28.0 °F 25% 30.09 in 10.0 mi WNW 4.6 mph - N/A   Clear
10:54 AM 71.6 °F - 30.2 °F 22% 30.26 in 10.0 mi Variable 3.5 mph - N/A   Clear
11:54 AM 77.0 °F - 28.9 °F 17% 30.02 in 10.0 mi Variable 5.8 mph - N/A   Clear
12:54 PM 78.1 °F - 26.1 °F 15% 29.99 in 10.0 mi Variable 4.6 mph - N/A   Clear
1:54 PM 80.6 °F - 26.6 °F 14% 30.20 in 10.0 mi NW 6.9 mph - N/A   Clear
2:54 PM 80.6 °F - 24.8 °F 13% 30.19 in 10.0 mi North 9.2 mph - N/A   Clear
3:54 PM 81.0 °F - 21.9 °F 11% 29.95 in 10.0 mi West 6.9 mph - N/A   Clear
4:54 PM 80.1 °F - 21.0 °F 11% 29.96 in 10.0 mi Variable 5.8 mph - N/A   Clear
5:54 PM 73.9 °F - 23.0 °F 15% 29.99 in 10.0 mi NW 6.9 mph - N/A   Clear
6:54 PM 63.0 °F - 25.0 °F 24% 30.01 in 10.0 mi WNW 6.9 mph - N/A   Clear
7:54 PM 64.0 °F - 24.1 °F 22% 30.00 in 10.0 mi WSW 3.5 mph - N/A   Clear
8:54 PM 59.0 °F - 26.1 °F 28% 30.00 in 10.0 mi SSE 5.8 mph - N/A   Clear
9:54 PM 62.1 °F - 21.9 °F 21% 29.99 in 10.0 mi North 6.9 mph - N/A   Clear
10:54 PM 55.0 °F - 23.0 °F 29% 29.98 in 10.0 mi South 5.8 mph - N/A   Clear
11:54 PM 55.0 °F - 23.0 °F 29% 29.96 in 10.0 mi South 8.1 mph - N/A   Clear